GCFDH EGBJ-EGFF

Flight info

Callsign GCFDH
Flight time 0h 31m
Altitude 1500
Route ZESPE PEGZA
Aircraft C152/L-SCDE2/C

Departure

Time 2026-04-24 20:21
Airport Gloucestershire Airport (EGBJ)

Arrival

Time 2026-04-24 20:52
Airport Cardiff International Airport (EGFF)
Time Latitude Longitude Altitude Speed Heading
2026-04-24 20:18 51.89272 -2.16567 86 ft 0 kts 352°
2026-04-24 20:18 51.89299 -2.16571 84 ft 11 kts 359°
2026-04-24 20:19 51.89398 -2.16585 83 ft 5 kts 349°
2026-04-24 20:19 51.89402 -2.16585 83 ft 2 kts
2026-04-24 20:19 51.89422 -2.16499 85 ft 18 kts 83°
2026-04-24 20:19 51.89450 -2.16113 85 ft 52 kts 82°
2026-04-24 20:20 51.89477 -2.15421 203 ft 63 kts 88°
2026-04-24 20:20 51.89493 -2.14633 352 ft 72 kts 87°
2026-04-24 20:20 51.89487 -2.13795 495 ft 78 kts 90°
2026-04-24 20:20 51.89495 -2.12868 598 ft 85 kts 89°
2026-04-24 20:21 51.89787 -2.12095 698 ft 92 kts 20°
2026-04-24 20:21 51.90349 -2.12521 795 ft 101 kts 297°
2026-04-24 20:21 51.90223 -2.13576 897 ft 100 kts 231°
2026-04-24 20:21 51.89829 -2.14500 1003 ft 100 kts 234°
2026-04-24 20:22 51.89445 -2.15454 1110 ft 102 kts 234°
2026-04-24 20:22 51.89055 -2.16424 1213 ft 104 kts 234°
2026-04-24 20:22 51.88662 -2.17407 1314 ft 104 kts 234°
2026-04-24 20:22 51.88269 -2.18392 1416 ft 104 kts 234°
2026-04-24 20:23 51.87884 -2.19367 1489 ft 104 kts 234°
2026-04-24 20:23 51.87476 -2.20387 1487 ft 111 kts 234°
2026-04-24 20:23 51.87057 -2.21429 1501 ft 113 kts 234°
2026-04-24 20:23 51.86632 -2.22489 1498 ft 112 kts 234°
2026-04-24 20:24 51.86206 -2.23550 1499 ft 113 kts 234°
2026-04-24 20:24 51.85774 -2.24623 1496 ft 113 kts 234°
2026-04-24 20:24 51.85342 -2.25697 1498 ft 114 kts 234°
2026-04-24 20:24 51.84908 -2.26775 1496 ft 114 kts 234°
2026-04-24 20:25 51.84478 -2.27848 1498 ft 114 kts 234°
2026-04-24 20:25 51.84043 -2.28923 1488 ft 115 kts 234°
2026-04-24 20:25 51.83608 -2.30001 1486 ft 115 kts 234°
2026-04-24 20:25 51.83179 -2.31066 1489 ft 114 kts 234°
2026-04-24 20:26 51.82747 -2.32140 1487 ft 114 kts 234°
2026-04-24 20:26 51.82317 -2.33212 1493 ft 114 kts 234°
2026-04-24 20:26 51.81889 -2.34280 1491 ft 112 kts 234°
2026-04-24 20:26 51.81460 -2.35344 1491 ft 113 kts 234°
2026-04-24 20:27 51.81025 -2.36418 1497 ft 115 kts 234°
2026-04-24 20:27 51.80587 -2.37501 1493 ft 115 kts 234°
2026-04-24 20:27 51.80158 -2.38570 1493 ft 113 kts 234°
2026-04-24 20:27 51.79726 -2.39639 1491 ft 113 kts 234°
2026-04-24 20:28 51.79300 -2.40696 1487 ft 112 kts 234°
2026-04-24 20:28 51.78877 -2.41746 1489 ft 111 kts 234°
2026-04-24 20:28 51.78448 -2.42804 1484 ft 113 kts 234°
2026-04-24 20:28 51.78019 -2.43868 1489 ft 113 kts 234°
2026-04-24 20:29 51.77733 -2.44576 1489 ft 113 kts 234°
2026-04-24 20:29 51.77154 -2.46007 1501 ft 115 kts 234°
2026-04-24 20:29 51.76715 -2.47083 1483 ft 114 kts 234°
2026-04-24 20:29 51.76281 -2.48149 1498 ft 113 kts 234°
2026-04-24 20:30 51.75850 -2.49209 1493 ft 114 kts 234°
2026-04-24 20:30 51.75410 -2.50300 1490 ft 114 kts 234°
2026-04-24 20:30 51.74980 -2.51368 1491 ft 113 kts 234°
2026-04-24 20:30 51.74553 -2.52424 1489 ft 114 kts 234°
2026-04-24 20:31 51.74121 -2.53484 1489 ft 113 kts 233°
2026-04-24 20:31 51.73696 -2.54542 1488 ft 113 kts 234°
2026-04-24 20:31 51.73268 -2.55602 1480 ft 113 kts 234°
2026-04-24 20:31 51.72836 -2.56666 1483 ft 113 kts 234°
2026-04-24 20:32 51.72403 -2.57732 1486 ft 114 kts 234°
2026-04-24 20:32 51.71975 -2.58792 1491 ft 113 kts 234°
2026-04-24 20:32 51.71543 -2.59855 1487 ft 113 kts 234°
2026-04-24 20:32 51.71106 -2.60932 1491 ft 115 kts 234°
2026-04-24 20:33 51.70667 -2.62014 1482 ft 115 kts 234°
2026-04-24 20:33 51.70227 -2.63084 1488 ft 114 kts 234°
2026-04-24 20:33 51.69801 -2.64129 1480 ft 113 kts 234°
2026-04-24 20:33 51.69369 -2.65186 1476 ft 113 kts 234°
2026-04-24 20:34 51.68941 -2.66232 1479 ft 111 kts 234°
2026-04-24 20:34 51.68525 -2.67239 1500 ft 107 kts 233°
2026-04-24 20:34 51.68098 -2.68285 1487 ft 114 kts 234°
2026-04-24 20:34 51.67662 -2.69352 1491 ft 113 kts 234°
2026-04-24 20:35 51.67226 -2.70419 1489 ft 114 kts 234°
2026-04-24 20:35 51.66788 -2.71486 1486 ft 115 kts 234°
2026-04-24 20:35 51.66353 -2.72555 1493 ft 114 kts 234°
2026-04-24 20:35 51.65922 -2.73620 1486 ft 113 kts 234°
2026-04-24 20:36 51.65493 -2.74681 1498 ft 115 kts 234°
2026-04-24 20:36 51.65061 -2.75743 1491 ft 112 kts 234°
2026-04-24 20:36 51.64632 -2.76799 1492 ft 113 kts 234°
2026-04-24 20:36 51.64200 -2.77859 1486 ft 114 kts 233°
2026-04-24 20:37 51.63772 -2.78914 1486 ft 112 kts 234°
2026-04-24 20:37 51.63344 -2.79970 1490 ft 113 kts 233°
2026-04-24 20:37 51.62915 -2.81025 1489 ft 113 kts 234°
2026-04-24 20:37 51.62484 -2.82087 1482 ft 113 kts 233°
2026-04-24 20:38 51.62056 -2.83148 1499 ft 114 kts 234°
2026-04-24 20:38 51.61621 -2.84220 1490 ft 113 kts 234°
2026-04-24 20:38 51.61186 -2.85285 1497 ft 115 kts 234°
2026-04-24 20:38 51.60750 -2.86365 1489 ft 115 kts 234°
2026-04-24 20:39 51.60317 -2.87429 1490 ft 113 kts 233°
2026-04-24 20:39 51.59882 -2.88495 1488 ft 114 kts 234°
2026-04-24 20:39 51.59450 -2.89562 1495 ft 114 kts 234°
2026-04-24 20:39 51.59020 -2.90618 1491 ft 115 kts 234°
2026-04-24 20:40 51.58584 -2.91676 1488 ft 113 kts 234°
2026-04-24 20:40 51.58155 -2.92728 1484 ft 112 kts 234°
2026-04-24 20:40 51.57723 -2.93791 1496 ft 115 kts 234°
2026-04-24 20:40 51.57281 -2.94872 1494 ft 116 kts 234°
2026-04-24 20:41 51.56843 -2.95941 1492 ft 113 kts 234°
2026-04-24 20:41 51.56411 -2.97009 1483 ft 114 kts 234°
2026-04-24 20:41 51.55972 -2.98077 1491 ft 114 kts 234°
2026-04-24 20:41 51.55538 -2.99134 1490 ft 113 kts 233°
2026-04-24 20:42 51.55102 -3.00192 1492 ft 113 kts 234°
2026-04-24 20:42 51.54670 -3.01261 1486 ft 114 kts 234°
2026-04-24 20:42 51.54240 -3.02310 1491 ft 113 kts 234°
2026-04-24 20:42 51.53809 -3.03356 1484 ft 112 kts 234°
2026-04-24 20:43 51.53382 -3.04402 1487 ft 113 kts 234°
2026-04-24 20:43 51.52942 -3.05478 1496 ft 116 kts 234°
2026-04-24 20:43 51.52498 -3.06560 1492 ft 116 kts 234°
2026-04-24 20:43 51.52063 -3.07622 1491 ft 113 kts 234°
2026-04-24 20:44 51.51635 -3.08674 1491 ft 112 kts 234°
2026-04-24 20:44 51.51207 -3.09729 1490 ft 112 kts 235°
2026-04-24 20:44 51.50781 -3.10772 1485 ft 111 kts 233°
2026-04-24 20:44 51.50354 -3.11815 1495 ft 113 kts 233°
2026-04-24 20:45 51.49919 -3.12877 1492 ft 114 kts 234°
2026-04-24 20:45 51.49491 -3.13920 1496 ft 113 kts 234°
2026-04-24 20:45 51.49053 -3.14986 1496 ft 115 kts 234°
2026-04-24 20:45 51.48615 -3.16055 1492 ft 113 kts 234°
2026-04-24 20:46 51.48184 -3.17111 1494 ft 113 kts 234°
2026-04-24 20:46 51.47871 -3.18277 1495 ft 116 kts 256°
2026-04-24 20:46 51.47684 -3.19529 1492 ft 115 kts 254°
2026-04-24 20:46 51.47481 -3.20778 1490 ft 115 kts 254°
2026-04-24 20:47 51.47277 -3.22028 1484 ft 116 kts 254°
2026-04-24 20:47 51.47071 -3.23267 1486 ft 114 kts 253°
2026-04-24 20:47 51.46870 -3.24490 1490 ft 113 kts 254°
2026-04-24 20:47 51.46667 -3.25711 1486 ft 113 kts 254°
2026-04-24 20:48 51.46465 -3.26932 1492 ft 114 kts 253°
2026-04-24 20:48 51.46237 -3.28157 1484 ft 115 kts 239°
2026-04-24 20:48 51.45800 -3.29214 1487 ft 113 kts 234°
2026-04-24 20:48 51.45382 -3.30296 1484 ft 113 kts 236°
2026-04-24 20:49 51.44978 -3.31357 1485 ft 113 kts 236°
2026-04-24 20:49 51.44565 -3.32442 1482 ft 113 kts 236°
2026-04-24 20:49 51.44161 -3.33500 1482 ft 112 kts 236°
2026-04-24 20:49 51.43756 -3.34567 1483 ft 111 kts 236°
2026-04-24 20:50 51.43348 -3.35633 1442 ft 115 kts 236°
2026-04-24 20:50 51.42914 -3.36757 1327 ft 122 kts 236°
2026-04-24 20:50 51.42465 -3.37911 1203 ft 122 kts 236°
2026-04-24 20:50 51.41997 -3.39073 975 ft 125 kts 228°
2026-04-24 20:51 51.41261 -3.39575 793 ft 113 kts 168°
2026-04-24 20:51 51.40767 -3.38842 656 ft 102 kts 104°
2026-04-24 20:51 51.40676 -3.37773 527 ft 94 kts 97°
2026-04-24 20:51 51.40478 -3.36862 430 ft 83 kts 116°
2026-04-24 20:52 51.40207 -3.36057 312 ft 83 kts 117°
2026-04-24 20:52 51.39972 -3.35301 218 ft 66 kts 116°
2026-04-24 20:52 51.39809 -3.34783 215 ft 28 kts 129°
2026-04-24 20:52 51.39747 -3.34767 215 ft 13 kts 214°
2026-04-24 20:53 51.39634 -3.34886 217 ft 20 kts 207°
2026-04-24 20:53 51.39531 -3.34968 223 ft 14 kts 201°
2026-04-24 20:53 51.39457 -3.34994 225 ft 11 kts 127°
2026-04-24 20:53 51.39472 -3.34804 223 ft 22 kts 78°
2026-04-24 20:54 51.39480 -3.34661 220 ft 11 kts 134°
2026-04-24 20:54 51.39420 -3.34627 221 ft 14 kts 162°
2026-04-24 20:54 51.39377 -3.34594 219 ft 0 kts 140°